Regional Weather Roundup
Issued by NWS State College, PA

Home | Current Version | Previous Version | Graphics & Text | Print | Product List | Glossary Off
Versions: 1 2 3 4 5 6 7 8 9 10 11 12 13 14 15 16 17 18 19 20 21 22 23 24 25 26 27 28 29 30 31 32 33 34 35 36 37 38 39 40 41 42 43 44 45 46 47 48 49 50

000
ASUS41 KCTP 292310
RWRCTP

REGIONAL WEATHER ROUNDUP
NATIONAL WEATHER SERVICE STATE COLLEGE PA
700 PM EDT SUN MAR 29 2015

Note: "fair" indicates few or no clouds below 12,000 feet with no
significant weather and/or obstructions to visibility.

* = STATION THAT DOES NOT REPORT PRECIPITATION /E.G. RAIN...SNOW...ETC/
    THUNDER OR FOG.

PAZ002>004-007>009-013>016-020>023-029>032-300000-
WESTERN PENNSYLVANIA

CITY           SKY/WX    TMP DP  RH WIND       PRES   REMARKS
ERIE           CLOUDY    43   9  24 S21G30    29.92F
MEADVILLE      MOCLDY    40  10  29 S13G21    29.95F
FRANKLIN*      MOCLDY    37  12  35 S17       30.00F
NEW CASTLE     FAIR      42   8  24 S10G17    30.01F
BEAVER COUNTY  NOT AVBL
BUTLER*        MOCLDY    41  10  28 SW9       30.04F
PITTSBURGH INT CLOUDY    44   5  20 S12       30.03F
PITTSBURGH     MOCLDY    42   3  19 S13       30.04F
INDIANA*       CLEAR     41   7  24 SW8       30.09F
LATROBE        MOCLDY    43  10  26 SW12      30.09F
WASHINGTON CO* MOCLDY    43   9  24 S8        30.07F
$$

PAZ004>006-010>012-017>019-024>028-033>037-041-042-045-046-049>053-300000-
CENTRAL PENNSYLVANIA

CITY           SKY/WX    TMP DP  RH WIND       PRES   REMARKS
BRADFORD       MOCLDY    36   9  32 S9        29.97F
DUBOIS         PTCLDY    39   7  26 SW6       30.01F
CLEARFIELD     PTCLDY    40   6  24 S9        30.04F
JOHNSTOWN      MOCLDY    38   7  27 SW7       30.02F
ALTOONA        PTCLDY    42   8  24 S10       30.06F
STATE COLLEGE  CLEAR     41   5  22 S9        30.05F
WILLIAMSPORT   CLEAR     43   2  18 S10G16    30.08F
SELINSGROVE    CLEAR     42  10  27 S6        30.12F
FT INDIANTOWN  CLEAR     42   6  22 S6        30.13F
CAPITAL CITY   CLEAR     43   6  21 S9        30.14F
HARRISBURG     PTCLDY    43  10  26 S8        30.14F
YORK           CLEAR     41   9  26 S8        30.16F
$$

PAZ038>040-043-044-047-048-054-055-060>062-067>071-300000-
EASTERN PENNSYLVANIA

CITY           SKY/WX    TMP DP  RH WIND       PRES   REMARKS
SCRANTON       CLEAR     41   5  22 SW7       30.08F
MOUNT POCONO   CLEAR     35   5  28 W9        30.07F
ALLENTOWN      CLEAR     42  10  27 SW14      30.15F
QUAKERTOWN*    CLEAR     41   7  24 W5        30.16F
READING        CLEAR     42   4  20 SW6       30.14F
LANCASTER      CLEAR     42   6  22 SW9       30.15F
COATESVILLE    CLEAR     39   7  26 S3        30.16F
POTTSTOWN      CLEAR     41  10  28 SW5       30.18F
BLUE BELL      CLEAR     43  14  31 SW6       30.18F
DOYLESTOWN     CLEAR     40   7  25 SW5       30.16F
WILLOW GROVE   NOT AVBL
NORTH PHILA    CLEAR     43   6  21 W10       30.20F
PHILADELPHIA   CLEAR     43   8  23 SW10      30.21F
$$


USA.gov is the U.S. government's official web portal to all federal, state and local government web resources and services.